Flag for Japan Weather past 2 weeks in Utsunomiya, Japan

Now
40 °F

Chilly.


Feels Like: 34 °F
Forecast: 25 / 41 °F
Wind: 9 mph from Northeast

Location: Mito

Current Time: Jan 30, 2015 at 5:10:03 PM

Latest Report: Jan 30, 2015 at 4:00 PM


Visibility: N/A

Pressure: 29.89 "Hg

Humidity: 92%

Dew point: 38 °F

Location of UtsunomiyaLocation

Historic Weather in Utsunomiya — Graph

°F

Utsunomiya temperature yesterday

Maximum temperature yesterday: 43 °F (at 2:00 PM)
Minimum temperature yesterday: 25 °F (at 4:00 AM)
Average temperature yesterday: 35 °F

Past Weeks' High & Low Weather Summary

 TemperatureHumidityPressure
High59 °F (Jan 27, 2:00 PM)97% (Jan 27, 3:00 AM)30.45 "Hg (Jan 27, 3:00 AM)
Low25 °F (Jan 29, 4:00 AM)23% (Jan 17, 5:00 PM)29.53 "Hg (Jan 23, 1:00 AM)
Average40 °F69%30.04 "Hg
* Reported Jan 15 3:00 PM — Jan 30 3:00 PM, Utsunomiya, Weather by CustomWeather, © 2014

Note: Actual official high and low records may vary slightly from our data, if they occured in-between our weather recording intervals... More about our weather records

Advertising

Utsunomiya weather history for previous 24 hours

 ConditionsComfort  
Time TempWeatherWind HumidityBarometerVisibility
3:00 PM
Jan 30
39 °FLight rain. Overcast.13 mph93%29.91 "Hg12 mi
2:00 PM35 °FChilly.7 mph96%29.96 "HgN/A
1:00 PM34 °FChilly.10 mph96%30.01 "HgN/A
11:00 AM34 °FChilly.6 mph96%30.13 "HgN/A
10:00 AM34 °FChilly.6 mph96%30.17 "HgN/A
9:00 AM34 °FLight rain. Overcast.6 mph96%30.20 "Hg5 mi
8:00 AM33 °FChilly.6 mph95%30.23 "HgN/A
7:00 AM33 °FChilly.6 mph93%30.24 "HgN/A
5:00 AM34 °FChilly.5 mph79%30.25 "HgN/A
4:00 AM34 °FChilly.3 mph76%30.26 "HgN/A
3:00 AM33 °FOvercast.6 mph75%30.27 "Hg12 mi
2:00 AM32 °FChilly.5 mph80%30.30 "HgN/A
1:00 AM32 °FChilly.5 mph79%30.31 "HgN/A
12:00 AM32 °FChilly.3 mph79%30.32 "HgN/A
11:00 PM
Jan 29
35 °FChilly.3 mph67%30.34 "HgN/A
10:00 PM35 °FChilly.2 mph74%30.35 "HgN/A
9:00 PM36 °FOvercast.2 mph67%30.36 "Hg12 mi
8:00 PM37 °FChilly.1 mph62%30.35 "HgN/A
7:00 PM38 °FChilly.1 mph58%30.34 "HgN/A
6:00 PM40 °FQuite cool.No wind45%30.34 "HgN/A
5:00 PM40 °FQuite cool.5 mph46%30.34 "HgN/A
Weather by CustomWeather, © 2014

See weather overviewHow to use our weather pages